User: anonymous   Login
Location: Unspecified
(48.7670°N, 0.0000°E)
Time: 12:50:05
(UTC+00:00)
Language:

Courier 1B - Orbit

View from above orbital plane
View from above orbital plane
View from above satellite
View from above satellite

Ground track
Ground track

The orbit data is extracted from the following two-line orbital elements,

1    58U 60013A   20296.07329749  .00000090  00000-0  11290-4 0  9999
2    58  28.3260 172.2549 0164911  37.5733 323.6211 13.46323604956220
Epoch (UTC): 22 October 2020 01:45:32
Eccentricity: 0.0164911
inclination: 28.3260°
perigee height: 963 km
apogee height: 1209 km
right ascension of ascending node: 172.2549°
argument of perigee: 37.5733°
revolutions per day: 13.46323604
mean anomaly at epoch: 323.6211°
orbit number at epoch: 95622

The dashed part of the orbit path shows where the satellite is in the earth's shadow,  

DLR